Hourly Weather Alleroy

Today, 7 March, Sunday

Time Temperature Precipitation Wind Pressure Humidity
00:00 +8°C° 0 mm 3 mps 728 mmHg 43%
01:00 +8°C° 0 mm 3 mps 728 mmHg 45%
02:00 +8°C° 0 mm 3 mps 728 mmHg 47%
03:00 +6°C° 0 mm 4 mps 729 mmHg 49%
04:00 +5°C° 0.5 mm 5 mps 730 mmHg 62%
05:00 +2°C° 0.5 mm 6 mps 731 mmHg 74%
06:00 0°C° 0.5 mm 7 mps 732 mmHg 86%
07:00 -1°C° 1 mm 7 mps 732 mmHg 88%
08:00 -2°C° 1 mm 6 mps 733 mmHg 90%
09:00 -2°C° 1 mm 5 mps 734 mmHg 92%
10:00 -1°C° 0.3 mm 5 mps 734 mmHg 82%
11:00 0°C° 0.3 mm 5 mps 734 mmHg 72%
12:00 0°C° 0.3 mm 5 mps 734 mmHg 62%
13:00 +1°C° 0.1 mm 4 mps 734 mmHg 57%
14:00 +1°C° 0.1 mm 4 mps 734 mmHg 52%
15:00 +2°C° 0.1 mm 3 mps 734 mmHg 48%
16:00 +3°C° 0 mm 2 mps 734 mmHg 48%
17:00 +2°C° 0 mm 2 mps 734 mmHg 49%
18:00 +2°C° 0 mm 1 mps 734 mmHg 50%
19:00 +2°C° 0 mm 1 mps 734 mmHg 52%
20:00 +1°C° 0 mm 1 mps 734 mmHg 54%
21:00 -2°C° 0 mm 2 mps 734 mmHg 57%
22:00 -2°C° 0 mm 2 mps 734 mmHg 58%
23:00 -2°C° 0 mm 2 mps 734 mmHg 60%

Tomorrow, 8 March, Monday

Time Temperature Precipitation Wind Pressure Humidity
00:00 0°C° 0 mm 1 mps 734 mmHg 62%
01:00 0°C° 0 mm 1 mps 733 mmHg 63%
02:00 -1°C° 0 mm 1 mps 733 mmHg 65%
03:00 -1°C° 0 mm 1 mps 733 mmHg 66%
04:00 -1°C° 0 mm 1 mps 733 mmHg 67%
05:00 -2°C° 0 mm 0 mps 733 mmHg 68%
06:00 -2°C° 0 mm 0 mps 733 mmHg 69%
07:00 0°C° 0 mm 1 mps 733 mmHg 65%
08:00 +2°C° 0 mm 1 mps 733 mmHg 61%
09:00 +2°C° 0 mm 2 mps 732 mmHg 57%
10:00 +3°C° 0 mm 2 mps 732 mmHg 56%
11:00 +3°C° 0 mm 2 mps 731 mmHg 55%
12:00 +4°C° 0 mm 2 mps 731 mmHg 54%
13:00 +4°C° 0 mm 2 mps 731 mmHg 54%
14:00 +5°C° 0 mm 2 mps 730 mmHg 55%
15:00 +5°C° 0 mm 2 mps 730 mmHg 55%
16:00 +4°C° 0 mm 2 mps 730 mmHg 59%
17:00 +3°C° 0 mm 2 mps 730 mmHg 64%
18:00 +3°C° 0 mm 2 mps 730 mmHg 68%
19:00 +2°C° 0.1 mm 2 mps 730 mmHg 73%
20:00 +3°C° 0.1 mm 1 mps 730 mmHg 78%
21:00 +2°C° 0.1 mm 1 mps 730 mmHg 83%
22:00 +2°C° 0.3 mm 1 mps 730 mmHg 87%
23:00 +1°C° 0.3 mm 2 mps 730 mmHg 91%

Day after tomorrow, 9 March, Tuesday

Time Temperature Precipitation Wind Pressure Humidity
00:00 +1°C° 0.3 mm 2 mps 730 mmHg 94%
01:00 +1°C° 0.1 mm 2 mps 730 mmHg 94%
02:00 +1°C° 0.1 mm 1 mps 730 mmHg 93%
03:00 +1°C° 0.1 mm 1 mps 730 mmHg 92%
04:00 +1°C° 0 mm 1 mps 730 mmHg 92%
05:00 +1°C° 0 mm 1 mps 730 mmHg 91%
06:00 +1°C° 0 mm 1 mps 731 mmHg 91%
07:00 +2°C° 0 mm 1 mps 731 mmHg 85%
08:00 +2°C° 0 mm 2 mps 731 mmHg 79%
09:00 +3°C° 0 mm 2 mps 731 mmHg 73%
10:00 +3°C° 0 mm 2 mps 731 mmHg 67%
11:00 +4°C° 0 mm 2 mps 731 mmHg 62%
12:00 +5°C° 0 mm 2 mps 731 mmHg 57%
13:00 +6°C° 0 mm 2 mps 731 mmHg 54%
14:00 +6°C° 0 mm 2 mps 731 mmHg 51%
15:00 +6°C° 0 mm 2 mps 730 mmHg 48%
16:00 +6°C° 0 mm 2 mps 731 mmHg 51%
17:00 +6°C° 0 mm 1 mps 731 mmHg 54%
18:00 +5°C° 0 mm 1 mps 732 mmHg 57%
19:00 +4°C° 0 mm 1 mps 732 mmHg 60%
20:00 +4°C° 0 mm 1 mps 733 mmHg 64%
21:00 +3°C° 0 mm 1 mps 733 mmHg 67%
22:00 +3°C° 0.1 mm 1 mps 733 mmHg 72%
23:00 +3°C° 0.1 mm 1 mps 733 mmHg 78%

10 March, Wednesday

Time Temperature Precipitation Wind Pressure Humidity
00:00 +2°C° 0.1 mm 1 mps 733 mmHg 83%
01:00 +2°C° 0.3 mm 1 mps 733 mmHg 85%
02:00 +2°C° 0.3 mm 1 mps 733 mmHg 86%
03:00 0°C° 0.3 mm 0 mps 734 mmHg 87%
04:00 +1°C° 0.1 mm 1 mps 734 mmHg 88%
05:00 +1°C° 0.1 mm 1 mps 734 mmHg 90%
06:00 0°C° 0.1 mm 1 mps 734 mmHg 91%
07:00 +1°C° 0 mm 1 mps 734 mmHg 85%
08:00 +2°C° 0 mm 1 mps 734 mmHg 79%
09:00 +2°C° 0 mm 0 mps 734 mmHg 73%
10:00 +4°C° 0 mm 1 mps 734 mmHg 69%
11:00 +5°C° 0 mm 1 mps 733 mmHg 65%
12:00 +5°C° 0 mm 2 mps 733 mmHg 61%
13:00 +5°C° 0.1 mm 2 mps 733 mmHg 61%
14:00 +4°C° 0.1 mm 3 mps 732 mmHg 60%
15:00 +4°C° 0.1 mm 3 mps 732 mmHg 60%
16:00 +3°C° 0.1 mm 3 mps 732 mmHg 64%
17:00 +3°C° 0.1 mm 3 mps 731 mmHg 67%
18:00 +2°C° 0.1 mm 3 mps 731 mmHg 70%
19:00 +1°C° 0.1 mm 3 mps 731 mmHg 74%
20:00 +1°C° 0.1 mm 3 mps 731 mmHg 78%
21:00 0°C° 0.1 mm 3 mps 731 mmHg 82%
22:00 0°C° 0.1 mm 3 mps 731 mmHg 86%
23:00 0°C° 0.1 mm 3 mps 731 mmHg 90%

11 March, Thursday

Time Temperature Precipitation Wind Pressure Humidity
00:00 -2°C° 0.1 mm 4 mps 731 mmHg 95%
01:00 -2°C° 1.1 mm 4 mps 731 mmHg 95%
02:00 -3°C° 1.1 mm 4 mps 731 mmHg 96%
03:00 -3°C° 1.1 mm 4 mps 731 mmHg 97%
04:00 -4°C° 1.1 mm 4 mps 731 mmHg 97%
05:00 -4°C° 1.1 mm 4 mps 732 mmHg 97%
06:00 -4°C° 1.1 mm 4 mps 732 mmHg 97%
07:00 -5°C° 0.9 mm 4 mps 733 mmHg 96%
08:00 -5°C° 0.9 mm 4 mps 733 mmHg 96%
09:00 -6°C° 0.9 mm 5 mps 733 mmHg 95%
10:00 -6°C° 0.7 mm 5 mps 733 mmHg 95%
11:00 -6°C° 0.7 mm 5 mps 734 mmHg 95%
12:00 -6°C° 0.7 mm 5 mps 734 mmHg 95%
13:00 -6°C° 0.6 mm 5 mps 734 mmHg 94%
14:00 -5°C° 0.6 mm 4 mps 734 mmHg 93%
15:00 -7°C° 0.6 mm 4 mps 734 mmHg 92%
16:00 -7°C° 0.3 mm 4 mps 734 mmHg 93%
17:00 -7°C° 0.3 mm 3 mps 735 mmHg 94%
18:00 -7°C° 0.3 mm 3 mps 735 mmHg 95%
19:00 -8°C° 0.2 mm 3 mps 736 mmHg 95%
20:00 -7°C° 0.2 mm 2 mps 737 mmHg 95%
21:00 -7°C° 0.2 mm 2 mps 737 mmHg 94%
22:00 -8°C° 0 mm 2 mps 737 mmHg 94%
23:00 -8°C° 0 mm 1 mps 737 mmHg 93%

12 March, Friday

Time Temperature Precipitation Wind Pressure Humidity
00:00 -8°C° 0 mm 1 mps 737 mmHg 92%
01:00 -9°C° 0 mm 1 mps 737 mmHg 91%
02:00 -9°C° 0 mm 1 mps 737 mmHg 91%
03:00 -9°C° 0 mm 1 mps 737 mmHg 90%
04:00 -9°C° 0 mm 1 mps 737 mmHg 90%
05:00 -9°C° 0 mm 1 mps 738 mmHg 89%
06:00 -10°C° 0 mm 1 mps 738 mmHg 89%
07:00 -8°C° 0 mm 1 mps 738 mmHg 88%
08:00 -7°C° 0 mm 2 mps 739 mmHg 86%
09:00 -6°C° 0 mm 2 mps 739 mmHg 85%
10:00 -6°C° 0 mm 3 mps 739 mmHg 85%
11:00 -5°C° 0 mm 3 mps 738 mmHg 86%
12:00 -4°C° 0 mm 4 mps 738 mmHg 86%
13:00 -4°C° 0 mm 4 mps 738 mmHg 86%
14:00 -4°C° 0 mm 4 mps 738 mmHg 86%
15:00 -4°C° 0 mm 4 mps 738 mmHg 86%
16:00 -5°C° 0 mm 3 mps 738 mmHg 88%
17:00 -6°C° 0 mm 3 mps 738 mmHg 90%
18:00 -6°C° 0 mm 2 mps 738 mmHg 92%
19:00 -6°C° 0 mm 2 mps 737 mmHg 90%
20:00 -7°C° 0 mm 2 mps 737 mmHg 88%
21:00 -7°C° 0 mm 2 mps 737 mmHg 86%
22:00 -6°C° 0 mm 1 mps 737 mmHg 85%
23:00 -6°C° 0 mm 1 mps 736 mmHg 85%
Show more